Regional Weather Roundup
Issued by NWS

Home | Current Version | Previous Version | Graphics & Text | Print | Product List | Glossary Off
Versions: 1 2 3 4 5 6 7 8 9 10 11 12 13 14 15 16 17 18 19 20 21 22 23 24 25 26 27 28 29 30 31 32 33 34 35 36 37 38 39 40 41 42 43 44 45 46 47 48 49 50

000
ASUS43 KTOP 172008
RWRKS

WEATHER ROUNDUP FOR KANSAS
NATIONAL WEATHER SERVICE GOODLAND KS
200 PM CST WED DEC 17 2014

NOTE:  "FAIR" INDICATES FEW OR NO CLOUDS BELOW 12,000 FEET WITH NO
SIGNIFICANT WEATHER AND/OR OBSTRUCTIONS TO VISIBILITY.

KSZ001>006-013>018-027>032-041>047-172100-
NORTHWEST KANSAS

CITY           SKY/WX    TMP DP  RH WIND       PRES   REMARKS
GOODLAND       FOG       24  23  96 E8        30.01F VSB 1/4
HAYS           CLOUDY    32  19  59 E13       30.11F WCI  22
HILL CITY      CLOUDY    28  22  78 E10       30.12F WCI  19
RUSSELL        CLOUDY    31  24  75 E13       30.13F WCI  21
$$

KSZ061>065-074>080-084>089-172100-
SOUTHWEST KANSAS

CITY           SKY/WX    TMP DP  RH WIND       PRES   REMARKS
DODGE CITY     CLOUDY    34  27  75 SE17G24   30.04F WCI  23
ELKHART          N/A     50  31  48 SW9         N/A
GARDEN CITY    PTSUNNY   39  29  67 SE16      30.01F WCI  30
GREAT BEND     CLOUDY    32  23  69 SE14      30.13F WCI  22
LIBERAL        CLOUDY    43  28  56 S15       29.98F
PRATT          CLOUDY    32  28  86 SE12      30.12F WCI  23
$$

KSZ066>073-081>083-090>101-172100-
SOUTHEAST KANSAS

CITY           SKY/WX    TMP DP  RH WIND       PRES   REMARKS
CHANUTE        CLOUDY    31  26  82 E5        30.24F
COFFEYVILLE    CLOUDY    33  29  85 E6        30.24F
HUTCHINSON     CLOUDY    32  24  72 E8        30.17F
MEDICINE LODGE   N/A     34  28  79 SE8G17    30.16S
NEWTON         CLOUDY    30  21  69 E9        30.18F
PARSONS        CLOUDY    32  28  85 CALM      30.25R
WICHITA INTL   CLOUDY    33  24  69 E10       30.16F WCI  25
WICHITA JABRA  CLOUDY    32  25  75 SE9       30.17F
WICHITA MCCONL CLOUDY    32  25  75 E8        30.16F
WINFIELD       MIX PCPN  33  27  78 SE10      30.20F WCI  25
$$

KSZ007>012-019>026-033>040-048>060-102>105-172100-
NORTHEAST KANSAS

CITY           SKY/WX    TMP DP  RH WIND       PRES   REMARKS
CONCORDIA      CLOUDY    27  20  75 E10       30.20F WCI  17
EMPORIA        CLOUDY    29  24  82 E6        30.22F
LAWRENCE       CLOUDY    29  21  72 NE5       30.27F
MANHATTAN      CLOUDY    28  19  69 E7        30.24F
MARYSVILLE     CLOUDY    30  19  64 SE6       30.24F
OLATHE IND     CLOUDY    29  23  78 E6        30.25F
OLATHE EXE     CLOUDY    29  22  75 E5        30.24F
SALINA         CLOUDY    30  23  75 E10       30.20F WCI  21
TOPEKA BILLARD CLOUDY    29  20  69 NE3       30.27F
TOPEKA FORBES  CLOUDY    30  21  69 E7        30.25F
$$



USA.gov is the U.S. government's official web portal to all federal, state and local government web resources and services.